Date,TemperatureHighF,TemperatureAvgF,TemperatureLowF,DewpointHighF,DewpointAvgF,DewpointLowF,HumidityHigh,HumidityAvg,HumidityLow,PressureMaxIn,PressureMinIn,WindSpeedMaxMPH,WindSpeedAvgMPH,GustSpeedMaxMPH,PrecipitationSumIn
2013-1-1,29.8,12.3,-0.9,10.6,2.0,-7.5,78,65,40,29.12,28.91,0,0,0,0.00
2013-1-2,46.9,19.5,11.7,25.6,11.2,4.7,80,70,40,29.03,28.85,0,0,0,0.04
2013-1-3,32.7,23.6,11.3,23.4,12.3,1.8,84,63,41,29.23,29.03,0,0,0,0.04
2013-1-4,37.9,19.2,11.1,14.3,9.7,5.3,84,69,37,29.14,28.97,0,0,0,0.00
2013-1-5,39.0,25.2,8.4,19.4,13.0,2.5,89,61,39,29.03,28.82,0,0,0,0.00
2013-1-6,43.5,24.6,8.4,19.6,12.5,2.4,81,62,35,29.12,28.88,0,0,0,0.04
2013-1-7,45.9,29.4,14.0,23.4,17.6,7.2,75,62,40,28.91,28.76,0,0,0,0.00
2013-1-8,43.0,27.5,9.9,25.2,16.9,3.8,87,66,44,28.91,28.64,0,0,0,0.00
2013-1-9,55.8,33.2,19.8,29.2,20.1,14.4,91,61,32,29.26,28.91,0,0,0,0.00
2013-1-10,39.9,30.3,20.1,34.8,25.3,15.2,98,82,52,29.15,28.52,0,0,0,0.08
2013-1-11,55.4,35.3,23.7,49.0,32.0,9.7,98,88,52,28.61,28.23,0,0,0,0.00
2013-1-12,35.8,19.2,8.8,33.4,3.3,-4.8,91,50,34,29.00,28.29,0,0,0,0.00
2013-1-13,30.0,13.2,4.6,4.9,-4.1,-11.4,56,46,33,29.14,28.94,0,0,0,0.00
2013-1-14,34.3,15.9,3.4,9.3,-1.6,-13.2,66,46,32,29.26,29.11,0,0,0,0.00
2013-1-15,38.8,21.9,7.7,16.6,8.3,-2.9,76,57,39,29.15,28.85,0,0,0,0.00
2013-1-16,58.5,34.1,20.3,30.1,20.8,10.9,78,60,30,29.06,28.73,0,0,0,0.00
2013-1-17,48.4,33.0,26.8,32.8,26.9,22.3,98,80,44,29.29,29.06,0,0,0,0.00
2013-1-18,51.1,36.8,29.1,30.9,25.4,23.0,97,65,38,29.09,28.73,0,0,0,0.00
2013-1-19,60.6,44.2,29.7,28.9,23.4,13.4,73,46,29,29.09,28.73,0,0,0,0.00
2013-1-20,29.7,17.0,11.8,13.8,2.6,-0.1,75,53,42,29.26,29.09,0,0,0,0.00
2013-1-21,17.6,12.7,7.7,7.4,-2.5,-9.1,73,51,36,29.26,29.12,0,0,0,0.00
2013-1-22,28.9,16.4,10.8,7.6,-0.6,-9.1,64,47,38,29.17,29.03,0,0,0,0.00
2013-1-23,33.6,18.3,9.1,15.6,5.0,-1.9,75,56,42,29.29,28.94,0,0,0,0.00
2013-1-24,18.7,11.1,1.8,1.8,-4.6,-9.6,58,49,37,29.35,28.97,0,0,0,0.00
2013-1-25,57.6,23.4,9.9,24.4,5.7,-5.9,78,48,26,29.09,28.91,0,0,0,0.00
2013-1-26,55.9,34.0,16.9,25.7,17.5,10.9,83,55,26,29.09,28.82,0,0,0,0.00
2013-1-27,41.7,37.8,34.9,41.2,37.2,20.6,98,98,50,28.85,28.52,0,0,0,0.04
2013-1-28,40.1,36.5,34.2,39.6,36.0,33.7,98,98,98,28.70,28.44,0,0,0,0.00
2013-1-29,37.8,33.6,32.2,37.2,32.0,29.0,98,94,79,28.55,28.44,0,0,0,0.00
2013-1-30,33.1,22.2,9.7,27.0,11.8,-0.7,94,65,41,28.76,28.55,0,0,0,0.00
2013-1-31,23.2,10.0,-0.9,8.3,-6.9,-21.5,74,47,33,29.23,28.76,0,0,0,0.00